Location: Lecco
(45.8566°N, 9.3977°E)
Time: 06:17:31
(UTC+02:00)

OTV 5 (USA 277) - Pass Details

Date: 18 June 2019
Orbit: 299 x 335 km, 54.5° (Epoch: 13 July)

Event Time Altitude Azimuth Distance (km) Brightness Sun altitude
Exits shadow 02:18:45 - 289° (WNW) 1,580 ? -19.6°
Reaches altitude 10° 02:19:43 10° 300° (WNW) 1,267 ? -19.6°
Maximum altitude 02:21:44 18° 346° (NNW) 922 ? -19.5°
Drops below altitude 10° 02:23:45 10° 32° (NNE) 1,261 ? -19.4°
Enters shadow 03:24:04 -61° 264° (W) 11,506 ? -15.5°
